Weather in Santa Fe

United States     35°41′30″N   105°56′44″W
temp.,
°C
wind,
m/s
gust,
m/s
humid.,
%
clouds,
%
prec.,
mm/h
press.,
hPa
HPBL,
m
16 may, sun
sun1600:00+14se3344100 0.0 101057
03:00+13se3454100 0.0 1011130
06:00+11se12595 0.0 101212
09:00+16wnw22406 0.0 1012873
12:00+21sw46215 0.0 10092860
15:00+23wsw77141 0.0 10063281
18:00+22sw58140 0.0 10043227
21:00+16ene452764 0.0 100774
17 may, mon
mon1700:00+13sse222439 0.0 100817
03:00+11ese22320 0.0 100919
06:00+10e32360 0.0 100915
09:00+16ssw45350 0.0 10081198
12:00+20s992289 0.0 10063918
15:00+21s991124 0.0 10033729
18:00+19wsw581379 0.1 10033582
21:00+11nne584535 0.0 1009302
18 may, tue
tue1800:00+9nne47536 0.0 1009167
03:00+7nne335899 0.0 100948
06:00+7ne125910 0.1 100910
09:00+12nnw3345100 0.0 1009623
12:00+17nnw542895 0.1 10062162
15:00+17w672649 0.1 10052464
18:00+15wsw783622 0.1 10061832
21:00+10sse1154100 0.0 100845
19 may, wed
wed1900:00+9ne336171 0.0 101041
03:00+8nne3463100 0.0 100962
06:00+7nne236721 0.0 101134
09:00+13nnw33466 0.0 1010626
12:00+18w353517 0.1 10081605
15:00+22nw172397 0.0 10043049
18:00+24wnw791463 0.0 10023946
21:00+17e333318 0.4 100632
20 may, thu
thu2000:00+14nne224592 1.2 101055
03:00+12s01514 0.0 101111
06:00+11ene11530 0.0 101211
09:00+17sw22330 0.0 1012756
12:00+22ssw69211 0.0 10102528
15:00+25sw9121630 0.0 10063670
18:00+21wsw101226100 0.0 10072141
21:00+19s51029100 0.0 1009602